Location: Oberwangen
(47.4286°N, 8.9679°E)
Time: 10:46:00
(UTC+00:00)

Cosmos 1953 Rocket - Pass Details

Date: 26 October 2021
Orbit: 604 x 635 km, 82.5° (Epoch: 26 November)

Event Time Altitude Azimuth Distance (km) Brightness Sun altitude
Rises 18:55:06 0° 346° (NNW) 2,943 7.3 -27.3°
Reaches altitude 10° 18:57:24 10° 343° (NNW) 2,027 6.5 -27.7°
Enters shadow 19:01:13 51° 296° (WNW) 797 4.3 -28.3°
